Regional Weather Roundup
Issued by NWS

Home | Current Version | Previous Version | Graphics & Text | Print | Product List | Glossary On
Versions: 1 2 3 4 5 6 7 8 9 10 11 12 13 14 15 16 17 18 19 20 21 22 23 24 25 26 27 28 29 30 31 32 33 34 35 36 37 38 39 40 41 42 43 44 45 46 47 48 49 50
000
ASUS43 KLOT 301308
RWRIL

ILLINOIS REGIONAL WEATHER ROUNDUP
NATIONAL WEATHER SERVICE CHICAGO/ROMEOVILLE IL
800 AM CDT SAT APR 30 2016

NOTE: "FAIR" INDICATES FEW OR NO CLOUDS BELOW 12,000 FEET WITH NO
SIGNIFICANT WEATHER AND/OR OBSTRUCTIONS TO VISIBILITY.

* THESE STATIONS ARE NOT UNDER NWS QUALITY CONTROL. THEY ALSO MAY NOT
  REPORT WEATHER SUCH AS PRECIPITATION OR FOG.

ILZ001-002-007-009-015-016-024-301400-
NORTHWEST ILLINOIS

CITY           SKY/WX    TMP DP  RH WIND       PRES   REMARKS
MOLINE         LGT RAIN  47  43  86 E16       29.92F FOG
STERLING*      CLOUDY    46  45  93 E18       29.97F
SAVANNA*       DRIZZLE   45  42  89 NE9       29.97F
$$

ILZ003-004-008-010-011-017-018-301400-
NORTH CENTRAL ILLINOIS

CITY           SKY/WX    TMP DP  RH WIND       PRES   REMARKS
ROCKFORD       CLOUDY    47  41  80 E13       30.04F
FREEPORT*      CLOUDY    45  40  85 E12       30.03F
ROCHELLE*      CLOUDY    47  43  87 E14       30.00F FOG
DE KALB*       CLOUDY    47  44  87 E12       30.02F FOG
$$

ILZ005-006-012>014-019>023-301400-
NORTHEAST ILLINOIS

CITY           SKY/WX    TMP DP  RH WIND       PRES   REMARKS
CHICAGO-OHARE  CLOUDY    47  42  83 E12       30.04F HAZE
CHICAGO-MIDWAY CLOUDY    50  41  71 E13       30.04F
AURORA         CLOUDY    49  44  83 E15       30.02F HAZE
LANSING*       PTSUNNY   48  41  77 E14       30.04F
JOLIET*        CLOUDY    51  44  77 E12G18    30.02S
WAUKEGAN       CLOUDY    43  40  89 E10       30.07F
DUPAGE AIRPORT PTSUNNY   48  41  76 E10       30.02F HAZE
KANKAKEE*      LGT RAIN  48  44  84 E14       30.02S
WHEELING       PTSUNNY   46  41  82 E10       30.06F
MORRIS*        CLOUDY    49  44  83 E13       29.99F HAZE
ROMEOVILLE*    CLOUDY    49  41  76 E12G17    30.02F
NORTHERLY ISL    N/A     46  42  86 E12         N/A
NORTHERLY ISL    N/A     46  42  86 E12         N/A
$$

LMZ740>746-301400-
SOUTHERN LAKE MICHIGAN

STATION/POSITION SKY/WX   TEMP    WIND        PRES    VSBY  WAVE
                          AIR SEA DIR/SP/G                  HT/PER
                          (F)     (DEG/KT/KT) (MB)    (MI)  (FT/S)
SOUTHERN BUOY              42 40   90/ 10/ 12 1019.6R         1/ 3
HARRISON CRIB              46      90/ 14/ 15   N/A
BURNHAM HARBOR             46      80/ 10/ 11   N/A
CALUMET HARBOR             47      80/  8/ 10 1017.8R
BURNS HARBOR               48     100/ 10/ 16 1019.0R
MICHIGAN CITY              47      80/  9/ 12   N/A
ST. JOSEPH                 48 47                N/A           1/ 3
$$

ILZ025>027-034>036-040-047-049-050-058-095>099-301400-
WEST-CENTRAL ILLINOIS

CITY           SKY/WX    TMP DP  RH WIND       PRES   REMARKS
QUINCY         LGT RAIN  51  50  96 E17G26    29.75F FOG
GALESBURG*     RAIN      47  46  96 E16G22    29.89F
MACOMB*        LGT RAIN  49  49  99 E21       29.87F
JACKSONVILLE*  LGT RAIN  54  53  94 E17       29.83F
PITTSFIELD*    LGT RAIN  54  54  99 E12       29.80F
$$

ILZ028>032-037-038-041>044-048-051>054-059>061-301400-
CENTRAL ILLINOIS

CITY           SKY/WX    TMP DP  RH WIND       PRES   REMARKS
PONTIAC        LGT RAIN  49  48  96 E21       29.98F
BLOOMINGTON    LGT RAIN  49  49 100 E17       29.94F VSB 3/4
DECATUR        LGT RAIN  53  51  93 E18       29.91F FOG
PEORIA         RAIN      48  46  93 E14G22    29.92F FOG
LACON*         LGT RAIN  47  45  93 E12       29.95S
LINCOLN*       RAIN      52  52  99 E13G20    29.90F
SPRINGFIELD    LGT RAIN  55  53  93 E14       29.86F FOG
TAYLORVILLE    LGT RAIN  54  54 100 E18G25    29.86F
$$

ILZ033-039-045-046-055>057-062-063-301400-
EAST-CENTRAL ILLINOIS

CITY           SKY/WX    TMP DP  RH WIND       PRES   REMARKS
CHAMPAIGN      RAIN      51  50  96 E16       29.95F FOG
RANTOUL*       LGT RAIN  52  50  95 E14       29.97F
MATTOON        RAIN      54  51  90 E9        29.94R FOG
PARIS*         RAIN      52  52  99 E7        29.98S
$$

ILZ079-100>102-301400-
SOUTHWEST ILLINOIS

CITY           SKY/WX    TMP DP  RH WIND       PRES   REMARKS
ALTON          RAIN      57  55  94 E14G23    29.80F
BELLEVILLE     CLOUDY    58  58 100 E15       29.80F FOG
CAHOKIA*       CLOUDY    60  57  89 SE21G28   29.76F
SPARTA*        LGT RAIN  58  58  98 SE13      29.83F
$$

ILZ064>066-069>071-074>076-080>082-084>086-088>090-092>094-301400-
SOUTH-CENTRAL ILLINOIS

CITY           SKY/WX    TMP DP  RH WIND       PRES   REMARKS
CARBONDALE     LGT RAIN  60  58  92 E9        29.83F
CAIRO*         RAIN      61  61 100 SE8       29.85F
EFFINGHAM*     RAIN      56  56 100 E9        29.93F
MARION         LGT RAIN  61  59  94 E9        29.85F
MT. VERNON     CLOUDY    57  54  88 E9        29.90F
CENTRALIA*     LGT RAIN  58  58  98 E9        29.87F
SALEM*         RAIN      59  56  92 E6        29.89S
METROPOLIS*    TSTM      61  61 100 CALM      29.88S
$$

ILZ067-068-072-073-078-083-087-091-301400-
SOUTHEAST ILLINOIS

CITY           SKY/WX    TMP DP  RH WIND       PRES   REMARKS
LAWRENCEVILLE  LGT RAIN  57  56  96 E9        29.95S FOG
FLORA*         CLOUDY    59  57  94 E7        29.92S
FAIRFIELD*     LGT RAIN  58  57  99 E6        29.90F
HARRISBURG*    RAIN      58  58  99 E9        29.88F
ROBINSON*      LGT RAIN  55  55  98 E12       29.96S
CARMI*         RAIN      58  58  98 E3        29.90F
$$

ABBREVIATIONS USED IN REMARKS
   TC - TEMPERATURE IN CELSIUS
  WCI - WIND CHILL INDEX
   HX - HEAT INDEX
  VSB - VISIBILITY
$$





USA.gov is the U.S. government's official web portal to all federal, state and local government web resources and services.